ONEWEB-0174 (48072 NORAD) Tracking and Keplerian Element Data

This shows tracking and keplerian element data for the satellite.

Feedback or suggestion? Click here.




ElementValue
Catalog48072
NameONEWEB-0174
Epoch Orbit192
Epoch Day173.91668981
Epoch Year2021
RAAN322.2665
Inclination87.8552
Eccentricity0.0009518
Argument of Perigee305.1492
Mean Anonmoly200.8131
Mean Motion13.98900799
Decay Rate1.6E-07
L11 48072U 21025AG 21173.91668981 .00000016 00000-0 00000-0 0 9990
L22 48072 87.8552 322.2665 0009518 305.1492 200.8131 13.98900799 1923

Live tracking and technical data element details for ONEWEB-0174 (NORAD 48072). ONEWEB-0174 can be tracked NOW for your location showing map with azimuth and elevation plus other details from your city location.

Track the satellite on the map from your city or location and see movement details for azimuth, elevation, latitude, longitude, range, height, and movement on the map or in text.







IsCatalogInMostPopularTable: catalog: 48072, numindb: 41
Update: records affected: 1



GetName: 48072 ONEWEB-0174

Hit Count: updated at: Thu, 24 Jun 2021 02:15:44 GMT